C4984 Weather Reports


time (UTC)temp
F
wind
direction
speed
knots
gust
knots
rain 1hr
in
rain 24hr
in
rain mn
in
humidity
%
barometer
mb
20260510190143 84 115 0.0 4.3 0.00 0.00 0.00 41 1009.0
20260510185206 84 115 0.9 4.3 0.00 0.00 0.00 39 1009.1
20260510184132 84 111 0.0 1.7 0.00 0.00 0.00 39 1009.2
20260510183140 84 210 0.0 1.7 0.00 0.00 0.00 48 1009.2
20260510182145 83 135 0.0 1.7 0.00 0.00 0.00 39 1009.4
20260510181130 83 117 0.9 4.3 0.00 0.00 0.00 42 1009.6
20260510180114 82 2 0.9 4.3 0.00 0.00 0.00 39 1009.6
20260510173956 81 155 0.9 5.2 0.00 0.00 0.00 42 1009.6
20260510171746 80 80 0.9 4.3 0.00 0.00 0.00 42 1009.6
20260510165608 81 55 0.0 1.7 0.00 0.00 0.00 44 1009.7
20260510162306 81 11 0.9 2.6 0.00 0.00 0.00 48 1009.8
20260510161304 81 314 0.0 2.6 0.00 0.00 0.00 49 1010.0
20260510160241 81 214 0.0 1.7 0.00 0.00 0.00 46 1010.0
20260510155301 80 347 0.0 2.6 0.00 0.00 0.00 46 1010.1
20260510153127 79 129 0.0 1.7 0.00 0.00 0.00 50 1010.2
20260510152057 79 232 0.0 0.9 0.00 0.00 0.00 52 1010.0
20260510145941 77 199 0.0 1.7 0.00 0.00 0.00 58 1010.1
20260510144926 76 144 0.0 1.7 0.00 0.00 0.00 63 1010.1
20260510143940 76 347 0.0 1.7 0.00 0.00 0.00 64 1010.0
20260510142919 75 183 0.0 2.6 0.00 0.00 0.00 67 1010.0
20260510141848 74 44 0.0 0.9 0.00 0.00 0.00 72 1009.9
20260510140909 73 349 0.0 2.6 0.00 0.00 0.00 71 1010.0
20260510135901 72 38 0.0 1.7 0.00 0.00 0.00 71 1010.1
20260510134909 71 34 0.0 2.6 0.00 0.00 0.00 74 1010.1
20260510133836 70 63 0.0 2.6 0.00 0.00 0.00 79 1010.1
20260510132900 68 3 0.0 1.7 0.00 0.00 0.00 83 1009.9
20260510131904 66 152 0.0 0.0 0.00 0.00 0.00 93 1009.9
20260510130900 64 152 0.0 0.9 0.00 0.00 0.00 96 1009.8
20260510125843 62 152 0.0 0.9 0.00 0.00 0.00 97 1009.4
20260510124808 62 127 0.0 0.0 0.00 0.00 0.00 98 1009.4
20260510123754 62 115 0.0 0.9 0.00 0.00 0.00 99 1009.4
20260510122752 61 108 0.0 0.0 0.00 0.00 0.00 98 1009.4
20260510121732 61 216 0.0 0.0 0.00 0.00 0.00 99 1009.4
20260510120726 60 136 0.0 0.0 0.00 0.00 0.00 98 1009.3
20260510115657 60 136 0.0 0.0 0.00 0.00 0.00 98 1009.2
20260510114643 60 136 0.0 0.0 0.00 0.00 0.00 98 1009.2
20260510113631 60 136 0.0 0.0 0.00 0.00 0.00 98 1009.1
20260510112651 60 120 0.0 0.0 0.00 0.00 0.00 98 1008.8
20260510110516 59 120 0.0 0.0 0.00 0.00 0.00 98 1008.4
20260510105453 59 120 0.0 0.0 0.00 0.00 0.00 98 1008.2
20260510104437 59 120 0.0 0.0 0.00 0.00 0.00 98 1008.2
20260510103422 59 120 0.0 0.0 0.00 0.00 0.00 98 1007.8
20260510102434 59 120 0.0 0.0 0.00 0.00 0.00 98 1007.7
20260510101407 59 121 0.0 0.0 0.00 0.00 0.00 97 1007.6
20260510095301 59 150 0.0 0.0 0.00 0.00 0.00 98 1007.4
20260510094254 59 150 0.0 0.0 0.00 0.00 0.00 97 1007.2
20260510093319 59 150 0.0 0.0 0.00 0.00 0.00 97 1007.2
20260510092337 59 150 0.0 0.0 0.00 0.00 0.00 97 1007.1
20260510090152 59 150 0.0 0.0 0.00 0.00 0.00 97 1007.0
20260510084025 60 150 0.0 0.0 0.00 0.00 0.00 97 1006.8
20260510083030 60 81 0.0 0.0 0.00 0.00 0.00 97 1006.8
20260510082021 60 81 0.0 0.0 0.00 0.00 0.00 97 1006.6
20260510081031 60 81 0.0 0.0 0.00 0.00 0.00 97 1006.8
20260510080024 60 81 0.0 0.0 0.00 0.00 0.00 97 1006.8
20260510072741 60 53 0.0 0.9 0.00 0.00 0.00 97 1006.6
20260510070637 60 136 0.0 0.0 0.00 0.00 0.00 97 1006.6
20260510065646 60 136 0.0 0.0 0.00 0.00 0.00 97 1006.6
20260510064708 60 136 0.0 0.0 0.00 0.00 0.00 96 1006.6
20260510063656 60 136 0.0 0.0 0.00 0.00 0.00 96 1006.4
20260510062625 60 136 0.0 0.0 0.00 0.00 0.00 96 1006.6
20260510061643 60 136 0.0 0.0 0.00 0.00 0.00 96 1006.6
20260510060652 60 136 0.0 0.0 0.00 0.00 0.00 96 1006.6
20260510054522 60 136 0.0 0.0 0.00 0.00 0.00 96 1006.9
20260510053450 61 136 0.0 0.0 0.00 0.00 0.00 96 1006.8
20260510052423 61 136 0.0 0.0 0.00 0.00 0.00 96 1007.1
20260510051416 61 136 0.0 0.0 0.00 0.00 0.00 95 1007.1
20260510050349 61 136 0.0 0.0 0.00 0.00 0.00 95 1007.2
20260510045356 61 136 0.0 0.0 0.00 0.00 0.00 95 1007.1
20260510044323 61 136 0.0 0.0 0.00 0.00 0.00 95 1007.1
20260510043252 61 136 0.0 0.0 0.00 0.00 0.00 95 1007.1
20260510041056 61 136 0.0 0.0 0.00 0.00 0.00 94 1007.0
20260510040059 62 136 0.0 0.0 0.00 0.00 0.00 94 1007.0
20260510035051 62 136 0.0 0.0 0.00 0.00 0.00 94 1007.0
20260510034109 62 136 0.0 0.0 0.00 0.00 0.00 94 1006.8
20260510033110 62 136 0.0 0.0 0.00 0.00 0.00 94 1006.8
20260510032127 62 136 0.0 0.0 0.00 0.00 0.00 94 1006.9
20260510031121 62 136 0.0 0.0 0.00 0.00 0.00 94 1006.7
20260510030128 62 27 0.0 0.0 0.00 0.00 0.00 93 1006.7
20260510024009 62 27 0.0 0.0 0.00 0.00 0.00 92 1006.6
20260510021918 63 27 0.0 0.0 0.00 0.00 0.00 91 1006.7
20260510015731 63 27 0.0 0.0 0.00 0.00 0.00 90 1006.4
20260510014716 64 27 0.0 0.0 0.00 0.00 0.00 89 1006.4
20260510013728 64 27 0.0 0.0 0.00 0.00 0.00 89 1006.1
20260510011606 65 27 0.0 0.9 0.00 0.00 0.00 88 1005.9
20260510010613 65 27 0.0 0.9 0.00 0.00 0.00 87 1005.8
20260510005602 66 198 0.0 0.0 0.00 0.00 0.00 85 1005.9
20260510003440 67 198 0.0 0.9 0.00 0.00 0.00 83 1005.8
20260510002417 68 214 0.0 0.0 0.00 0.00 0.00 81 1005.7
20260510001412 69 139 0.0 0.0 0.00 0.00 0.00 79 1005.6
20260510000353 69 101 0.0 0.0 0.00 0.00 0.00 78 1005.6
20260509235409 70 101 0.0 0.0 0.00 0.00 0.00 77 1005.1
20260509234346 70 151 0.0 0.0 0.00 0.00 0.00 76 1005.2
20260509233312 71 155 0.0 0.0 0.00 0.00 0.00 75 1005.2
20260509232244 71 143 0.0 2.6 0.00 0.00 0.00 75 1005.0
20260509231231 71 136 0.0 1.7 0.00 0.00 0.00 74 1004.8
20260509225111 72 137 0.0 4.3 0.00 0.00 0.00 73 1004.8
20260509224109 73 117 0.9 4.3 0.00 0.00 0.00 71 1005.0
20260509221933 73 117 0.9 5.2 0.00 0.00 0.00 72 1005.0
20260509220900 73 95 0.9 5.2 0.00 0.00 0.00 72 1005.0
20260509215908 73 172 0.0 4.3 0.00 0.00 0.00 71 1004.9
20260509214919 73 281 0.9 4.3 0.00 0.00 0.00 70 1004.9
20260509213853 75 146 0.9 4.3 0.00 0.00 0.00 68 1004.5
20260509212852 74 143 0.9 4.3 0.00 0.00 0.00 68 1004.4
20260509211857 74 337 0.9 3.5 0.00 0.00 0.00 69 1004.4
20260509205815 73 71 0.9 7.0 0.00 0.00 0.00 70 1004.6
20260509204752 73 14 0.9 7.0 0.00 0.00 0.00 68 1004.6
20260509203813 74 65 0.9 5.2 0.00 0.00 0.00 67 1004.5
20260509202807 75 8 0.9 6.1 0.00 0.00 0.00 67 1004.6
20260509201804 73 152 0.9 6.1 0.00 0.00 0.00 69 1004.6
20260509195630 72 146 0.9 7.0 0.00 0.00 0.00 67 1004.9
20260509194652 72 129 0.9 7.0 0.00 0.00 0.00 65 1004.9
20260509193631 73 148 0.9 7.0 0.00 0.00 0.00 63 1005.1
20260509192655 73 74 1.7 7.0 0.00 0.00 0.00 63 1005.1
20260509191706 73 94 1.7 7.8 0.00 0.00 0.00 63 1005.1